FALCON 9 R/B, 56369

Orbit data source: Space-Track

FALCON 9 R/B, 56369 is space debris in LEO originally from a launch on Fri, 28 Apr 2023 UTC launched from the Air Force Eastern Test Range (AFETR). Debris objects in space refer to the collection of defunct objects orbiting the Earth. Examples of debris include non-operational satellites, rocket bodies, and fragments generated from explosions, collisions, or faulty payload assembly.

Loading next visibility...
Identifier
56369, 2023-059C
Orbit
LEO
Country
Flag of USUS
Related business
Manufacturer
SpaceX
Mission
Spacecraft
Bus & Motor
F9ST2, Unknown motor
Mass
~4,000 kg wet, ~4,000 kg dry
Launch date (UTC)
2023-04-28 (3 years ago)
Launch vehicle
Unknown
Launch site
Air Force Eastern Test Range (AFETR)
Object type
Payload
Rocket body
Debris
Shape & HBR
Cyl, 7.8 m
Radar Cross Section
39.980 m², Large (>1 m²)

Expand to show TLE details & history
Last TLE update: 1 week ago

TLE from 1 week ago
0 FALCON 9 R/B
1 56369U 23059C   26165.95864585  .00000042  00000-0 -38125-2 0  9996
2 56369   8.5709 163.0325 1884862 204.5444 145.2015  7.26695669 83151
Epoch: 2026-06-14T23:00Z
TLE epoch observation values (Epoch: 2026-06-14T23:00:27.001Z)
Latitude
Longitude
-85.33191°
Altitude
6,725.899 km
Speed
5.044 km/s
True Right ascension
10h 52m 07s
True Declination
0° 00' 00"
Sunlit
Object was in daylight at epoch
Visualization orbit readout
Latitude
Unknown
Longitude
Unknown
Altitude
Unknown
Speed
Unknown
Apparent Right ascension
Unknown
Apparent Declination
Unknown
Sunlit
N/A
Visualization observer readout
Local Sidereal Time
00:34:47
Azimuth
Unknown
Elevation
Unknown
Doppler factor
Unknown
Orbital elements
Apogee altitude
7,007.793 km
Perigee altitude
2,761.95 km
Semi-major axis
11,263.008 km
Eccentricity
0.18849
Inclination
8.5709°
RAAN
163.0325°
Arg. of periapsis
204.5444°
True anomaly
155.4668°
Mean anomaly
145.2015°
Eccentric anomaly
150.51667°
Mean motion
1.81577 °/min
Orbital period
198.26 mins
BSTAR
-0.0038125
Loading maneuver chart data...
Computing Atmospheric mass density...
Loading historical data...
Loading historical data...
Loading historical data...
Loading historical data...
Loading historical data...
Loading historical data...
Loading historical data...
Other satellites on launch #59 in the year 2023 (2023-04-28 UTC)

Documentation

Showing up to 5 results
|